Change the Weather History Date:

Sunday, March 24, 2013

  Actual Average Record
Temperature  
Mean Temperature 27 °F -  
Max Temperature 33 °F 43 °F 73 °F (1968)
Min Temperature 21 °F 24 °F -14 °F (1965)
Degree Days  
Heating Degree Days 38    
Moisture  
Dew Point 24 °F    
Average Humidity 85    
Maximum Humidity 100    
Minimum Humidity 60    
Precipitation  
Precipitation 0.00 in - - ()
Sea Level Pressure  
Sea Level Pressure 30.05 in    
Wind  
Wind Speed 7 mph (NNW)    
Max Wind Speed 14 mph    
Max Gust Speed 18 mph    
Visibility 8 miles    
Events Snow    
Averages and records for this station are not official NWS values.
T = Trace of Precipitation, MM = Missing Value Source: NWS Daily Summary

Daily Weather History Graph

Daily Weather History Graph

Search for Another Location

Airport or City:

Trip Planner

Search our weather history database for the weather conditions in past years. The results will help you decide how hot, cold, wet, or windy it might be!

Date:

Astronomy

Mar. 24, 2013 Rise Set
Actual Time 7:13 AM CDT 7:36 PM CDT
Civil Twilight 6:43 AM CDT 8:05 PM CDT
Nautical Twilight 6:09 AM CDT 8:40 PM CDT
Astronomical Twilight 5:33 AM CDT 9:16 PM CDT
Moon 4:59 PM CDT (3/24) 5:30 AM CDT (3/24)
Length of Visible Light 13h 21m
Length of Day
12h 22m
Waxing Gibbous, 92% of the Moon is Illuminated
Mar 24
Waxing Gibbous
Mar 27
Full
Apr 2
Last Quarter
Apr 10
New
Apr 18
First Quarter

Hourly Weather History & Observations

Time (CDT) Temp. Windchill Dew Point Humidity Pressure Visibility Wind Dir Wind Speed Gust Speed Precip Events Conditions
12:12 AM 24.8 °F 16.9 °F 21.2 °F 86% 30.11 in 10.0 mi NW 6.9 mph - N/A   Mostly Cloudy
12:33 AM 24.8 °F 16.1 °F 21.2 °F 86% 30.10 in 10.0 mi NW 8.1 mph - N/A   Mostly Cloudy
12:53 AM 24.8 °F 16.9 °F 21.2 °F 86% 30.10 in 10.0 mi NW 6.9 mph - N/A   Mostly Cloudy
1:13 AM 24.8 °F 16.1 °F 19.4 °F 80% 30.09 in 10.0 mi NW 8.1 mph - N/A   Mostly Cloudy
1:33 AM 24.8 °F 16.9 °F 19.4 °F 80% 30.09 in 10.0 mi NW 6.9 mph - N/A   Mostly Cloudy
1:53 AM 23.0 °F 13.9 °F 19.4 °F 86% 30.09 in 10.0 mi NW 8.1 mph - N/A   Overcast
2:33 AM 23.0 °F 13.1 °F 19.4 °F 86% 30.09 in 10.0 mi WNW 9.2 mph - N/A   Overcast
2:52 AM 23.0 °F 14.7 °F 19.4 °F 86% 30.08 in 10.0 mi WNW 6.9 mph - N/A   Overcast
3:13 AM 23.0 °F 14.7 °F 19.4 °F 86% 30.08 in 7.0 mi WNW 6.9 mph - N/A Snow Light Snow
3:33 AM 23.0 °F 14.7 °F 19.4 °F 86% 30.08 in 10.0 mi WNW 6.9 mph - N/A   Overcast
3:52 AM 23.0 °F 13.9 °F 21.2 °F 93% 30.07 in 10.0 mi NW 8.1 mph - N/A   Mostly Cloudy
4:13 AM 23.0 °F 13.9 °F 21.2 °F 93% 30.07 in 10.0 mi NW 8.1 mph - N/A   Mostly Cloudy
4:33 AM 23.0 °F 13.9 °F 21.2 °F 93% 30.06 in 10.0 mi NW 8.1 mph - N/A   Overcast
4:52 AM 21.2 °F 12.6 °F 21.2 °F 100% 30.07 in 10.0 mi NW 6.9 mph - N/A   Overcast
5:13 AM 21.2 °F 13.6 °F 21.2 °F 100% 30.06 in 10.0 mi NW 5.8 mph - N/A   Overcast
5:33 AM 21.2 °F 13.6 °F 21.2 °F 100% 30.06 in 7.0 mi NW 5.8 mph - N/A Snow Light Snow
5:52 AM 21.2 °F 12.6 °F 21.2 °F 100% 30.06 in 7.0 mi NW 6.9 mph - N/A Snow Light Snow
6:13 AM 21.2 °F 12.6 °F 21.2 °F 100% 30.06 in 10.0 mi NW 6.9 mph - N/A   Mostly Cloudy
6:33 AM 21.2 °F 13.6 °F 21.2 °F 100% 30.06 in 10.0 mi NW 5.8 mph - N/A   Mostly Cloudy
6:52 AM 21.2 °F 14.9 °F 21.2 °F 100% 30.06 in 10.0 mi NW 4.6 mph - N/A   Mostly Cloudy
7:13 AM 21.2 °F 14.9 °F 21.2 °F 100% 30.06 in 10.0 mi NW 4.6 mph - N/A   Overcast
7:33 AM 21.2 °F 16.4 °F 21.2 °F 100% 30.06 in 10.0 mi NW 3.5 mph - N/A   Overcast
7:52 AM 21.2 °F 14.9 °F 21.2 °F 100% 30.06 in 10.0 mi NNW 4.6 mph - N/A   Overcast
8:13 AM 23.0 °F 17.0 °F 21.2 °F 93% 30.06 in 7.0 mi NNW 4.6 mph - N/A   Overcast
8:33 AM 23.0 °F 17.0 °F 21.2 °F 93% 30.06 in 2.5 mi NNW 4.6 mph - N/A Snow Light Snow
8:53 AM 24.8 °F 19.1 °F 21.2 °F 86% 30.05 in 1.8 mi NNW 4.6 mph - N/A   Overcast
9:13 AM 24.8 °F 19.1 °F 23.0 °F 93% 30.05 in 1.8 mi North 4.6 mph - N/A   Overcast
9:32 AM 24.8 °F 19.1 °F 24.8 °F 100% 30.05 in 2.0 mi North 4.6 mph - N/A   Overcast
9:53 AM 26.6 °F 21.2 °F 24.8 °F 93% 30.04 in 5.0 mi North 4.6 mph - N/A   Overcast
10:12 AM 26.6 °F 18.2 °F 26.6 °F 100% 30.04 in 7.0 mi NNE 8.1 mph - N/A   Overcast
10:33 AM 28.4 °F 22.2 °F 26.6 °F 93% 30.04 in 4.0 mi NE 5.8 mph - N/A   Overcast
10:52 AM 28.4 °F 21.2 °F 26.6 °F 93% 30.04 in 7.0 mi NE 6.9 mph - N/A   Overcast
11:13 AM 30.2 °F 22.6 °F 26.6 °F 86% 30.04 in 7.0 mi NE 8.1 mph - N/A   Overcast
11:33 AM 30.2 °F 22.6 °F 26.6 °F 86% 30.04 in 7.0 mi NE 8.1 mph - N/A   Overcast
11:52 AM 30.2 °F 22.6 °F 26.6 °F 86% 30.04 in 10.0 mi NNE 8.1 mph - N/A   Overcast
12:13 PM 30.2 °F 21.3 °F 24.8 °F 80% 30.03 in 10.0 mi NE 10.4 mph - N/A   Overcast
12:32 PM 30.2 °F 22.6 °F 21.2 °F 69% 30.03 in 10.0 mi NE 8.1 mph - N/A   Overcast
12:53 PM 30.2 °F 22.6 °F 21.2 °F 69% 30.03 in 10.0 mi NNE 8.1 mph - N/A   Overcast
1:13 PM 32.0 °F 24.8 °F 21.2 °F 64% 30.03 in 10.0 mi NNE 8.1 mph - N/A   Overcast
1:32 PM 32.0 °F 24.8 °F 23.0 °F 69% 30.03 in 10.0 mi North 8.1 mph - N/A   Mostly Cloudy
1:53 PM 33.8 °F 27.0 °F 21.2 °F 60% 30.03 in 10.0 mi NE 8.1 mph - N/A   Scattered Clouds
2:13 PM 33.8 °F 25.8 °F 23.0 °F 65% 30.02 in 10.0 mi NNE 10.4 mph 17.3 mph N/A   Scattered Clouds
2:32 PM 33.8 °F 24.3 °F 21.2 °F 60% 30.02 in 10.0 mi NNE 13.8 mph 18.4 mph N/A   Mostly Cloudy
2:53 PM 33.8 °F 24.8 °F 21.2 °F 60% 30.01 in 10.0 mi NNE 12.7 mph - N/A   Overcast
3:13 PM 33.8 °F 25.8 °F 21.2 °F 60% 30.01 in 10.0 mi NNE 10.4 mph - N/A   Overcast
3:32 PM 33.8 °F 25.3 °F 23.0 °F 65% 30.00 in 10.0 mi NNE 11.5 mph - N/A   Overcast
3:53 PM 33.8 °F 26.4 °F 23.0 °F 65% 30.00 in 10.0 mi North 9.2 mph 12.7 mph N/A   Overcast
4:13 PM 33.8 °F 25.8 °F 24.8 °F 70% 30.00 in 10.0 mi North 10.4 mph - N/A   Overcast
4:32 PM 33.8 °F 27.0 °F 24.8 °F 70% 30.00 in 10.0 mi North 8.1 mph - N/A   Overcast
4:53 PM 33.8 °F 26.4 °F 24.8 °F 70% 30.00 in 10.0 mi NNE 9.2 mph - N/A   Overcast
5:13 PM 33.8 °F 26.4 °F 23.0 °F 65% 30.01 in 10.0 mi North 9.2 mph - N/A   Overcast
5:32 PM 33.8 °F 25.3 °F 23.0 °F 65% 30.01 in 10.0 mi North 11.5 mph 16.1 mph N/A   Overcast
5:53 PM 33.8 °F 27.0 °F 23.0 °F 65% 30.01 in 10.0 mi North 8.1 mph - N/A   Overcast
6:12 PM 33.8 °F 24.8 °F 24.8 °F 70% 30.01 in 10.0 mi North 12.7 mph - N/A   Overcast
6:33 PM 32.0 °F 22.1 °F 24.8 °F 75% 30.01 in 10.0 mi North 13.8 mph - N/A   Overcast
6:53 PM 30.2 °F 21.9 °F 26.6 °F 86% 30.02 in 7.0 mi North 9.2 mph - N/A   Overcast
7:12 PM 30.2 °F 22.6 °F 28.4 °F 93% 30.03 in 2.5 mi North 8.1 mph - N/A   Overcast
7:33 PM 30.2 °F 23.4 °F 28.4 °F 93% 30.04 in 5.0 mi NNW 6.9 mph - N/A   Overcast
7:52 PM 30.2 °F 24.3 °F 28.4 °F 93% 30.04 in 5.0 mi NNW 5.8 mph - N/A   Overcast
8:13 PM 30.2 °F 26.7 °F 28.4 °F 93% 30.04 in 2.5 mi North 3.5 mph - N/A Snow Light Snow
8:33 PM 30.2 °F 24.3 °F 28.4 °F 93% 30.05 in 3.0 mi North 5.8 mph - N/A   Overcast
8:52 PM 30.2 °F 25.4 °F 28.4 °F 93% 30.05 in 2.0 mi North 4.6 mph - N/A Snow Snow
9:13 PM 30.2 °F 24.3 °F 30.2 °F 100% 30.05 in 2.0 mi NW 5.8 mph - N/A Snow Light Snow
9:33 PM 30.2 °F 23.4 °F 28.4 °F 93% 30.06 in 4.0 mi NNW 6.9 mph - N/A Snow Light Snow
9:52 PM 30.2 °F 23.4 °F 26.6 °F 86% 30.06 in 10.0 mi NNW 6.9 mph - N/A   Overcast
10:13 PM 30.2 °F 21.9 °F 26.6 °F 86% 30.06 in 2.5 mi NNW 9.2 mph - N/A Snow Light Snow
10:33 PM 28.4 °F 19.1 °F 26.6 °F 93% 30.06 in 2.5 mi NNW 10.4 mph - N/A Snow Light Snow
10:52 PM 28.4 °F 18.5 °F 26.6 °F 93% 30.06 in 2.5 mi NNW 11.5 mph - N/A Snow Light Snow
11:13 PM 28.4 °F 20.4 °F 26.6 °F 93% 30.06 in 3.0 mi NNW 8.1 mph - N/A Snow Light Snow
11:33 PM 28.4 °F 20.4 °F 26.6 °F 93% 30.06 in 10.0 mi NNW 8.1 mph - N/A Snow Light Snow
11:52 PM 28.4 °F 21.2 °F 26.6 °F 93% 30.06 in 10.0 mi NNW 6.9 mph - N/A   Overcast